Tracy, MN

11:33 AM CDT on May 27, 2017 (GMT -0500)
Tracy

Weather History for KTKC - March, 2014

Change the Weather History Date:

Monday, March 10, 2014

  Actual Average (KMML) Record (KMML)
Temperature  
Mean Temperature 46 °F -  
Max Temperature 53 °F 38 °F 68 °F (2012)
Min Temperature 39 °F 18 °F -7 °F (1979)
Degree Days  
Heating Degree Days 19    
Moisture  
Dew Point 39 °F    
Average Humidity 73    
Maximum Humidity 94    
Minimum Humidity 54    
Precipitation  
Precipitation 0.00 in - - ()
Sea Level Pressure  
Sea Level Pressure 29.70 in    
Wind  
Wind Speed 7 mph (West)    
Max Wind Speed 14 mph    
Max Gust Speed 18 mph    
Visibility 10 miles    
Events      
Averages and records for this station are not official NWS values.
T = Trace of Precipitation, MM = Missing Value Source: NWS Daily Summary

Daily Weather History Graph

Daily Weather History Graph

Search for Another Location

Airport or City:

Trip Planner

Search our weather history database for the weather conditions in past years. The results will help you decide how hot, cold, wet, or windy it might be!

Date:

Astronomy

Mar. 10, 2014 Rise Set
Actual Time 7:43 AM CDT 7:22 PM CDT
Civil Twilight 7:14 AM CDT 7:51 PM CDT
Nautical Twilight 6:41 AM CDT 8:24 PM CDT
Astronomical Twilight 6:07 AM CDT 8:58 PM CDT
Moon 1:58 PM CDT (3/10) 4:05 AM CDT (3/10)
Length of Visible Light 12h 36m
Length of Day
11h 38m
Waxing Gibbous, 70% of the Moon is Illuminated
Mar 10
Waxing Gibbous
Mar 16
Full
Mar 23
Last Quarter
Mar 30
New
Apr 7
First Quarter

Hourly Weather History & Observations

Time (CDT) Temp. Windchill Dew Point Humidity Pressure Visibility Wind Dir Wind Speed Gust Speed Precip Events Conditions
12:12 AM 46.9 °F - 33.1 °F 59% 29.66 in 10.0 mi WSW 13.8 mph - N/A   Clear
12:32 AM 48.9 °F - 32.9 °F 54% 29.68 in 10.0 mi West 6.9 mph - N/A   Clear
12:53 AM 43.9 °F 38.8 °F 32.9 °F 65% 29.69 in 10.0 mi WSW 9.2 mph - N/A   Clear
1:12 AM 43.7 °F 37.7 °F 32.9 °F 66% 29.68 in 10.0 mi WSW 11.5 mph - N/A   Clear
1:33 AM 45.1 °F 39.1 °F 33.1 °F 63% 29.68 in 10.0 mi WSW 12.7 mph - N/A   Clear
1:53 AM 46.0 °F 40.6 °F 33.1 °F 61% 29.68 in 10.0 mi WSW 11.5 mph - N/A   Clear
2:13 AM 45.5 °F 40.8 °F 33.3 °F 62% 29.69 in 10.0 mi West 9.2 mph - N/A   Clear
2:32 AM 45.5 °F 41.3 °F 33.6 °F 63% 29.69 in 10.0 mi West 8.1 mph 16.1 mph N/A   Clear
2:53 AM 44.2 °F 39.7 °F 33.8 °F 67% 29.69 in 10.0 mi West 8.1 mph - N/A   Clear
3:12 AM 44.8 °F 40.4 °F 33.8 °F 65% 29.69 in 10.0 mi West 8.1 mph - N/A   Clear
3:33 AM 44.2 °F 39.2 °F 33.8 °F 67% 29.68 in 10.0 mi West 9.2 mph - N/A   Clear
3:52 AM 44.1 °F 39.0 °F 33.8 °F 67% 29.68 in 10.0 mi West 9.2 mph - N/A   Clear
4:12 AM 44.1 °F 40.1 °F 34.0 °F 68% 29.67 in 10.0 mi West 6.9 mph - N/A   Clear
4:33 AM 44.6 °F 39.7 °F 34.2 °F 67% 29.67 in 10.0 mi West 9.2 mph - N/A   Clear
4:53 AM 44.1 °F 39.0 °F 34.0 °F 68% 29.66 in 10.0 mi West 9.2 mph - N/A   Clear
5:13 AM 43.7 °F 38.6 °F 34.0 °F 69% 29.68 in 10.0 mi West 9.2 mph - N/A   Clear
5:33 AM 43.5 °F 38.9 °F 34.0 °F 69% 29.68 in 10.0 mi WSW 8.1 mph - N/A   Clear
5:52 AM 42.3 °F 37.3 °F 33.6 °F 71% 29.67 in 10.0 mi WSW 8.1 mph - N/A   Clear
6:12 AM 43.3 °F 38.6 °F 34.2 °F 70% 29.67 in 10.0 mi West 8.1 mph - N/A   Clear
6:32 AM 44.1 °F 39.0 °F 34.3 °F 69% 29.67 in 10.0 mi West 9.2 mph - N/A   Clear
6:52 AM 43.5 °F 38.3 °F 34.3 °F 70% 29.67 in 10.0 mi WSW 9.2 mph - N/A   Clear
7:12 AM 43.9 °F 38.3 °F 34.5 °F 70% 29.68 in 10.0 mi WSW 10.4 mph - N/A   Clear
7:32 AM 43.9 °F 38.3 °F 34.5 °F 70% 29.68 in 10.0 mi WSW 10.4 mph 16.1 mph N/A   Clear
7:52 AM 43.9 °F 37.9 °F 34.7 °F 70% 29.68 in 10.0 mi West 11.5 mph - N/A   Clear
8:13 AM 45.9 °F 41.7 °F 35.6 °F 67% 29.69 in 10.0 mi West 8.1 mph - N/A   Clear
8:33 AM 45.9 °F 41.7 °F 35.6 °F 67% 29.69 in 10.0 mi West 8.1 mph - N/A   Clear
8:52 AM 47.3 °F - 36.5 °F 66% 29.69 in 10.0 mi West 8.1 mph - N/A   Clear
9:12 AM 47.8 °F - 37.4 °F 67% 29.71 in 10.0 mi WNW 10.4 mph - N/A   Clear
9:33 AM 50.5 °F - 37.9 °F 62% 29.71 in 10.0 mi WNW 10.4 mph 18.4 mph N/A   Clear
9:52 AM 50.9 °F - 38.8 °F 63% 29.72 in 10.0 mi WNW 9.2 mph 16.1 mph N/A   Clear
10:12 AM 52.2 °F - 39.4 °F 62% 29.72 in 10.0 mi WNW 8.1 mph - N/A   Clear
10:33 AM 53.2 °F - 40.3 °F 61% 29.71 in 10.0 mi WNW 5.8 mph - N/A   Clear
10:53 AM 53.1 °F - 40.8 °F 63% 29.72 in 10.0 mi WSW 6.9 mph - N/A   Clear
11:13 AM 51.6 °F - 40.8 °F 67% 29.72 in 10.0 mi West 9.2 mph - N/A   Clear
11:32 AM 51.8 °F - 40.8 °F 66% 29.72 in 10.0 mi West 8.1 mph - N/A   Clear
11:52 AM 52.7 °F - 42.1 °F 67% 29.72 in 10.0 mi West 6.9 mph - N/A   Clear
12:12 PM 53.6 °F - 41.4 °F 63% 29.73 in 10.0 mi WNW 6.9 mph - N/A   Clear
12:32 PM 53.1 °F - 41.9 °F 66% 29.74 in 10.0 mi WNW 9.2 mph - N/A   Clear
12:53 PM 53.6 °F - 42.4 °F 66% 29.73 in 10.0 mi Calm Calm - N/A   Clear
1:12 PM 53.1 °F - 42.3 °F 67% 29.73 in 10.0 mi West 4.6 mph - N/A   Clear
1:32 PM 53.6 °F - 42.8 °F 67% 29.72 in 10.0 mi WNW 4.6 mph - N/A   Clear
1:53 PM 53.6 °F - 43.0 °F 67% 29.72 in 10.0 mi NW 6.9 mph - N/A   Clear
2:13 PM 53.6 °F - 43.3 °F 68% 29.71 in 10.0 mi WNW 6.9 mph - N/A   Clear
2:33 PM 53.4 °F - 43.7 °F 70% 29.70 in 10.0 mi Calm Calm - N/A   Clear
2:52 PM 53.6 °F - 43.7 °F 69% 29.70 in 10.0 mi Calm Calm - N/A   Clear
3:12 PM 53.1 °F - 43.7 °F 71% 29.70 in 10.0 mi Calm Calm - N/A   Clear
3:32 PM 53.6 °F - 44.4 °F 71% 29.70 in 10.0 mi Calm Calm - N/A   Clear
3:53 PM 53.6 °F - 44.6 °F 72% 29.69 in 10.0 mi Calm Calm - N/A   Clear
4:12 PM 53.6 °F - 44.6 °F 72% 29.69 in 10.0 mi Calm Calm - N/A   Clear
4:32 PM 52.5 °F - 45.7 °F 78% 29.69 in 10.0 mi Calm Calm - N/A   Clear
4:53 PM 52.2 °F - 45.0 °F 76% 29.69 in 10.0 mi Calm Calm - N/A   Clear
5:12 PM 51.8 °F - 45.3 °F 79% 29.69 in 10.0 mi Calm Calm - N/A   Clear
5:32 PM 50.9 °F - 44.6 °F 79% 29.69 in 10.0 mi Calm Calm - N/A   Clear
5:53 PM 49.6 °F - 45.1 °F 84% 29.69 in 10.0 mi Calm Calm - N/A   Clear
6:12 PM 49.3 °F - 44.8 °F 84% 29.70 in 10.0 mi Calm Calm - N/A   Clear
6:32 PM 48.4 °F - 43.2 °F 82% 29.70 in 10.0 mi Calm Calm - N/A   Scattered Clouds
6:52 PM 45.9 °F - 43.0 °F 90% 29.70 in 10.0 mi Calm Calm - N/A   Mostly Cloudy
7:12 PM 45.0 °F - 42.6 °F 91% 29.70 in 10.0 mi Calm Calm - N/A   Overcast
7:32 PM 45.0 °F - 42.3 °F 90% 29.70 in 10.0 mi Calm Calm - N/A   Scattered Clouds
7:53 PM 43.5 °F - 40.6 °F 90% 29.71 in 10.0 mi Calm Calm - N/A   Clear
8:12 PM 42.6 °F - 39.6 °F 89% 29.72 in 10.0 mi Calm Calm - N/A   Clear
8:32 PM 42.3 °F - 39.2 °F 89% 29.72 in 10.0 mi Calm Calm - N/A   Scattered Clouds
8:52 PM 42.6 °F - 40.6 °F 93% 29.73 in 10.0 mi Calm Calm - N/A   Scattered Clouds
9:12 PM 41.5 °F - 39.7 °F 93% 29.72 in 10.0 mi Calm Calm - N/A   Clear
9:32 PM 40.3 °F - 38.7 °F 94% 29.72 in 10.0 mi Calm Calm - N/A   Scattered Clouds
9:52 PM 39.9 °F - 38.3 °F 94% 29.72 in 10.0 mi Calm Calm - N/A   Mostly Cloudy
10:12 PM 40.1 °F - 38.3 °F 93% 29.72 in 10.0 mi Calm Calm - N/A   Mostly Cloudy
10:32 PM 40.6 °F - 39.0 °F 94% 29.72 in 10.0 mi Calm Calm - N/A   Overcast
10:53 PM 40.5 °F - 38.7 °F 93% 29.71 in 10.0 mi Calm Calm - N/A   Overcast
11:12 PM 39.6 °F - 37.4 °F 92% 29.70 in 10.0 mi Calm Calm - N/A   Overcast
11:32 PM 40.8 °F - 38.7 °F 92% 29.70 in 10.0 mi Calm Calm - N/A   Overcast
11:52 PM 41.0 °F - 39.0 °F 93% 29.71 in 10.0 mi Calm Calm - N/A   Overcast